[[{"header":{"parameterUnit":"m.s-1","parameterCategory":1,"la1":30.2991,"la2":30.254,"lo1":-89.0895,"lo2":-89.0444,"dy":0.0017,"dx":0.0017,"nx":28,"ny":28,"refTime":"2025-05-17T03:00:00:Z","depth":0,"parameterNumber":2,"parameterNumberName":"U-component_of_WINDS"},"data":[0,0,0,0,0,0,0,0,0,0,0,0,0,0,0,0,0,0,0,0,0,0,0,0,0,0,0,0,0,0,0,0,0,0,0,0,0,0,0,0,0,0,0,0,0,0,0,0,0,0,0,0,0,0,0,0,0,0,1.5434,1.5435,0,1.5536,1.5537,1.5538,1.554,1.5539,1.5538,1.5537,1.5642,1.5646,1.565,0,0,0,0,0,0,0,0,0,0,0,0,0,1.5242,1.5246,1.5434,1.5435,1.5436,1.5536,1.5537,1.5538,1.5541,1.5539,1.5538,1.5536,1.5641,1.5646,1.565,0,0,0,0,0,0,0,0,0,0,0,0,0,1.5333,1.5247,1.5434,1.545,1.5452,1.5535,1.5537,1.5539,1.5541,1.5539,1.5537,1.5535,1.5639,1.5645,1.5651,1.5726,0,0,1.5669,1.5672,0,0,0,0,0,0,0,0,1.5328,1.534,1.5446,1.5449,1.5451,1.5523,1.5508,1.5601,1.5541,1.5507,1.5537,1.5534,1.5604,1.5613,1.5636,1.5731,1.5735,1.567,1.5673,1.5676,1.5678,0,0,0,0,0,0,0,1.5322,1.5336,1.5474,1.5447,1.5451,1.5452,1.5463,1.5526,1.5565,1.551,1.551,1.5522,1.5605,1.563,1.5639,1.5737,1.567,1.5675,1.5679,1.5681,1.5897,1.5899,0,0,0,0,0,0,1.5312,1.533,1.5471,1.5477,1.5384,1.5457,1.5469,1.5502,1.5564,1.5572,1.5524,1.5522,1.5621,1.5632,1.5642,1.5733,1.5676,1.5682,1.5685,1.5894,1.5897,1.5899,0,0,0,0,0,0,1.5308,1.5325,1.5467,1.5404,1.5422,1.5462,1.55,1.5505,1.553,1.5575,1.5582,1.5542,1.562,1.5634,1.5705,1.5737,1.5684,1.569,1.5892,1.5895,1.5898,1.5915,0,0,0,0,0,0,1.5302,1.5323,1.5352,1.5405,1.5426,1.5527,1.5502,1.5509,1.554,1.5539,1.5594,1.5601,1.562,1.5696,1.5711,1.5744,1.5694,1.5889,1.5893,1.5897,1.5912,1.5919,1.5924,0,0,0,0,0,1.5296,1.5353,1.5353,1.537,1.5462,1.5529,1.5541,1.5561,1.5543,1.5572,1.5601,1.56,1.5731,1.5703,1.572,1.5755,1.5887,1.5892,1.5897,1.5909,1.5917,1.5924,0,0,0,0,0,0,1.5303,1.536,1.5361,1.5437,1.5478,1.5529,1.5567,1.5569,1.5616,1.5613,1.5636,1.5648,1.5718,1.5744,1.5712,1.5831,1.5807,1.5815,1.5811,1.5819,1.5825,1.5817,1.5699,0,0,0,0,0,1.5314,1.5363,1.541,1.5473,1.5494,1.5527,1.5557,1.5568,1.5612,1.5629,1.5663,1.5705,1.5756,1.5789,1.5839,1.5916,1.5928,1.5949,1.5955,1.596,1.5967,1.6009,1.6018,1.5915,1.5915,1.5915,0,0,1.5336,1.5374,1.5403,1.5476,1.5509,1.5559,1.5541,1.5596,1.5633,1.5638,1.5706,1.5732,1.5781,1.5855,1.5889,1.5879,1.5998,1.5966,1.597,1.5974,1.6015,1.6024,1.6033,1.5918,1.5918,1.5917,0,0,1.5403,1.5436,1.5491,1.5525,1.5575,1.5596,1.561,1.566,1.5678,1.5746,1.575,1.5796,1.5883,1.5917,1.5946,1.6025,1.6025,1.6041,1.6073,1.6113,1.6121,1.6129,1.6156,1.6165,1.6047,1.6048,1.6048,0,1.5424,1.55,1.552,1.5574,1.5605,1.5611,1.5667,1.5699,1.5762,1.5784,1.5771,1.588,1.5914,1.5995,1.6014,1.6038,1.6054,1.6034,1.6119,1.6126,1.6133,1.6159,1.6169,1.6049,1.6049,1.6049,1.6049,0,1.5523,1.5576,1.5615,1.5675,1.5711,1.5766,1.5794,1.5828,1.5837,1.586,1.5929,1.597,1.6027,1.6047,1.6056,1.613,1.6122,1.6114,1.609,1.6144,1.6169,1.6179,1.6051,1.605,1.605,1.605,0,0,1.5597,1.5667,1.5681,1.5708,1.5764,1.5805,1.586,1.5915,1.5943,1.5988,1.6034,1.6107,1.61,1.6133,1.6146,1.6182,1.624,1.6169,1.6171,1.618,1.6322,1.6327,1.6338,1.6241,1.6243,1.6245,1.6318,0,1.5668,1.5766,1.5785,1.5869,1.5918,1.5924,1.5971,1.6011,1.6034,1.6078,1.6104,1.6155,1.6142,1.6161,1.6197,1.6225,1.6269,1.622,1.6284,1.6286,1.627,1.6352,1.6357,1.6424,1.6328,1.6329,1.6331,0,1.5764,1.581,1.5899,1.5947,1.5968,1.601,1.6062,1.6105,1.6149,1.6163,1.62,1.6209,1.6266,1.6241,1.632,1.6286,1.6313,1.6331,1.6334,1.634,1.6311,1.6358,1.6446,1.6456,1.6346,1.6345,1.6344,0,1.5807,1.5891,1.5955,1.5978,1.6036,1.6066,1.6091,1.6134,1.6166,1.6211,1.6232,1.6284,1.6312,1.6352,1.6374,1.6354,1.6451,1.6428,1.6464,1.6464,1.6484,1.6482,1.6576,1.6503,1.6503,1.6503,1.6503,0,1.5884,1.5938,1.5974,1.6014,1.6074,1.6096,1.6155,1.6181,1.6218,1.6263,1.6272,1.6313,1.6341,1.6386,1.6405,1.6466,1.648,1.6492,1.6496,1.6491,1.6489,1.6508,1.6503,1.6506,1.6505,1.6504,1.6504,0,1.5942,1.5969,1.6038,1.6088,1.6101,1.6143,1.6186,1.6224,1.6247,1.6302,1.6317,1.6353,1.6406,1.6433,1.65,1.6512,1.6582,1.6584,1.6566,1.6568,1.6602,1.6598,1.671,1.6726,1.6644,1.6645,1.6645,0,1.5989,1.603,1.6083,1.6113,1.6139,1.6188,1.622,1.6243,1.6276,1.633,1.6361,1.6415,1.6459,1.6545,1.6577,1.6628,1.663,1.6666,1.6638,1.6631,1.6629,1.6626,1.663,1.6671,1.6672,1.6672,1.6673,0,1.6068,1.6079,1.6125,1.6175,1.6213,1.6254,1.6294,1.6318,1.6348,1.6385,1.6439,1.6473,1.6541,1.6595,1.6648,1.6675,1.6679,1.6682,1.6692,1.6687,1.6674,1.668,1.6579,1.6679,1.6678,1.6678,1.6677,1.6677,1.6121,1.6157,1.62,1.6251,1.6284,1.6321,1.6359,1.6386,1.6432,1.6488,1.65,1.6557,1.66,1.6672,1.6701,1.6746,1.6738,1.6754,1.6758,1.6761,1.6762,1.6668,1.6756,1.6756,1.6756,1.6756,1.6756,0,1.6199,1.6227,1.6274,1.6329,1.6369,1.6369,1.6413,1.6446,1.6497,1.6537,1.658,1.6642,1.6694,1.673,1.6782,1.6811,1.6814,1.6824,1.6822,1.6827,1.6767,1.6751,1.6821,1.6821,1.6821,1.6821,1.6821,1.6821,1.6245,1.6306,1.6322,1.64,1.6428,1.6484,1.6509,1.6543,1.6575,1.6644,1.6687,1.671,1.6748,1.6803,1.685,1.686,1.6878,1.6887,1.6897,1.6839,1.6832,1.6825,1.6811,1.6892,1.6892,1.6953,1.6954,1.6954]},{"header":{"parameterUnit":"m.s-1","parameterCategory":1,"la1":30.2991,"la2":30.254,"lo1":-89.0895,"lo2":-89.0444,"dy":0.0017,"dx":0.0017,"nx":28,"ny":28,"refTime":"2025-05-17T03:00:00:Z","depth":0,"parameterNumber":3,"parameterNumberName":"V-component_of_WINDS"},"data":[0,0,0,0,0,0,0,0,0,0,0,0,0,0,0,0,0,0,0,0,0,0,0,0,0,0,0,0,0,0,0,0,0,0,0,0,0,0,0,0,0,0,0,0,0,0,0,0,0,0,0,0,0,0,0,0,0,0,2.7995,2.7996,0,2.8072,2.8073,2.8073,2.8075,2.8074,2.8073,2.8072,2.8148,2.8151,2.8153,0,0,0,0,0,0,0,0,0,0,0,0,0,2.7846,2.7849,2.7995,2.7996,2.7997,2.8072,2.8073,2.8074,2.8075,2.8074,2.8073,2.8072,2.8147,2.815,2.8154,0,0,0,0,0,0,0,0,0,0,0,0,0,2.7915,2.7849,2.7995,2.8007,2.8008,2.8071,2.8073,2.8074,2.8075,2.8074,2.8073,2.8071,2.8146,2.815,2.8154,2.8209,0,0,2.8167,2.8169,0,0,0,0,0,0,0,0,2.7911,2.7921,2.8004,2.8006,2.8008,2.8062,2.8048,2.8119,2.8076,2.805,2.8072,2.8071,2.812,2.8127,2.8144,2.8213,2.8216,2.8168,2.8171,2.8172,2.8174,0,0,0,0,0,0,0,2.7907,2.7917,2.8025,2.8005,2.8008,2.8007,2.8015,2.8061,2.8092,2.8052,2.8052,2.8062,2.8121,2.814,2.8146,2.8217,2.8168,2.8172,2.8174,2.8176,2.8334,2.8336,0,0,0,0,0,0,2.79,2.7913,2.8023,2.8027,2.7955,2.8011,2.802,2.8046,2.8092,2.8097,2.8063,2.8061,2.8133,2.8141,2.8149,2.8216,2.8172,2.8176,2.8179,2.8333,2.8335,2.8336,0,0,0,0,0,0,2.7897,2.791,2.802,2.7971,2.7985,2.8015,2.8044,2.8049,2.8067,2.81,2.8105,2.8077,2.8132,2.8142,2.8194,2.8218,2.8178,2.8182,2.8331,2.8333,2.8336,2.8351,0,0,0,0,0,0,2.7892,2.7908,2.7931,2.7971,2.7987,2.8065,2.8046,2.8051,2.8075,2.8074,2.8114,2.8119,2.8132,2.8188,2.8199,2.8224,2.8186,2.8329,2.8332,2.8335,2.8348,2.8354,2.8358,0,0,0,0,0,2.7887,2.7931,2.7932,2.7945,2.8016,2.8067,2.8076,2.8091,2.8077,2.8099,2.812,2.8118,2.8214,2.8193,2.8205,2.8232,2.8327,2.8331,2.8335,2.8346,2.8353,2.8358,0,0,0,0,0,0,2.7892,2.7937,2.7938,2.7997,2.8028,2.8067,2.8095,2.8097,2.8132,2.8129,2.8145,2.8154,2.8205,2.8224,2.82,2.8287,2.8269,2.8275,2.8274,2.828,2.8285,2.8279,2.8189,0,0,0,0,0,2.79,2.7939,2.7975,2.8024,2.804,2.8065,2.8087,2.8096,2.8129,2.8141,2.8166,2.8197,2.8234,2.8258,2.8294,2.8351,2.8359,2.8375,2.838,2.8384,2.8389,2.842,2.8427,2.8348,2.8348,2.8348,0,0,2.7917,2.7946,2.7969,2.8026,2.8051,2.8089,2.8076,2.8117,2.8146,2.8147,2.8198,2.8217,2.8252,2.8307,2.8332,2.8324,2.8412,2.8388,2.8391,2.8394,2.8424,2.8432,2.8438,2.8351,2.835,2.835,0,0,2.7967,2.7994,2.8037,2.8062,2.8101,2.8117,2.8128,2.8166,2.8179,2.8231,2.8233,2.8266,2.833,2.8355,2.8375,2.8435,2.8434,2.8446,2.8471,2.8501,2.8507,2.8512,2.8533,2.854,2.8451,2.8451,2.8451,0,2.7983,2.8043,2.8058,2.81,2.8124,2.8129,2.8172,2.8195,2.8243,2.8259,2.8249,2.8329,2.8353,2.8413,2.8428,2.8445,2.8456,2.8441,2.8505,2.8511,2.8516,2.8536,2.8544,2.8452,2.8452,2.8452,2.8452,0,2.806,2.8101,2.8131,2.8178,2.8205,2.8248,2.8269,2.8294,2.83,2.8317,2.8369,2.8398,2.8439,2.8454,2.846,2.8515,2.8509,2.8502,2.8484,2.8525,2.8543,2.8551,2.8454,2.8453,2.8453,2.8453,0,0,2.8116,2.8171,2.8182,2.8203,2.8246,2.8277,2.8319,2.8361,2.8382,2.8415,2.8449,2.8503,2.8497,2.852,2.8529,2.8555,2.86,2.8545,2.8546,2.8554,2.8661,2.8666,2.8675,2.8599,2.8601,2.8602,2.8658,0,2.8171,2.8247,2.8262,2.8327,2.8365,2.8369,2.8405,2.8434,2.8451,2.8484,2.8502,2.854,2.8529,2.8543,2.8569,2.8589,2.8621,2.8585,2.8631,2.8633,2.8622,2.8685,2.8691,2.8742,2.8666,2.8667,2.8668,0,2.8245,2.8281,2.835,2.8387,2.8403,2.8436,2.8475,2.8507,2.854,2.855,2.8576,2.8582,2.8624,2.8604,2.8662,2.8637,2.8656,2.8669,2.8671,2.8676,2.8653,2.8691,2.8759,2.8767,2.868,2.8679,2.8678,0,2.8279,2.8344,2.8394,2.8412,2.8456,2.8479,2.8498,2.853,2.8554,2.8587,2.8603,2.864,2.8661,2.8689,2.8705,2.8689,2.8761,2.8742,2.877,2.877,2.8785,2.8784,2.8857,2.8798,2.8798,2.8798,2.8797,0,2.8339,2.8381,2.8409,2.844,2.8487,2.8503,2.8548,2.8567,2.8595,2.8629,2.8634,2.8665,2.8683,2.8716,2.8728,2.8774,2.8783,2.8792,2.8794,2.8791,2.879,2.8804,2.8801,2.88,2.8799,2.8799,2.8798,0,2.8385,2.8406,2.846,2.8498,2.8508,2.8541,2.8573,2.8602,2.8618,2.866,2.8671,2.8697,2.8736,2.8754,2.8802,2.881,2.8862,2.8862,2.8852,2.8852,2.8879,2.8876,2.8964,2.8976,2.8909,2.8909,2.891,0,2.8422,2.8454,2.8496,2.8519,2.8539,2.8577,2.8601,2.8618,2.8643,2.8682,2.8706,2.8746,2.8779,2.8841,2.8863,2.89,2.8901,2.8929,2.8906,2.8902,2.8901,2.8899,2.8902,2.8933,2.8934,2.8934,2.8935,0,2.8485,2.8493,2.8529,2.8568,2.8598,2.8629,2.866,2.8678,2.87,2.8727,2.8768,2.8794,2.8843,2.8882,2.892,2.8939,2.894,2.8942,2.895,2.8947,2.8939,2.8944,2.8862,2.8939,2.8939,2.8939,2.8938,2.8938,2.8527,2.8556,2.859,2.8629,2.8654,2.8683,2.8712,2.8732,2.8767,2.8809,2.8817,2.886,2.8891,2.8942,2.8962,2.8995,2.8988,2.9001,2.9004,2.9006,2.9008,2.8934,2.9002,2.9002,2.9002,2.9002,2.9002,0,2.859,2.8612,2.8648,2.8691,2.8722,2.8722,2.8755,2.8781,2.8819,2.8848,2.8881,2.8927,2.8965,2.899,2.9027,2.9049,2.9051,2.9058,2.9057,2.9061,2.9012,2.9001,2.9057,2.9057,2.9057,2.9057,2.9056,2.9056,2.8627,2.8676,2.8688,2.8749,2.877,2.8813,2.8833,2.8858,2.8882,2.8934,2.8965,2.8982,2.9009,2.9049,2.9083,2.9089,2.9103,2.9111,2.9117,2.907,2.9065,2.9059,2.9049,2.9114,2.9114,2.9163,2.9164,2.9164]}]]